(29) Amphitrite
ephemeris date magn radius delta ra dec elong phase
Today9 Feb 20259.22.523 AU1.541 AU09h55m+18°27'172.9°2.8°
Opposition12 Feb 20259.22.526 AU1.541 AU09h52m+18°37'174.6°2.1°
(29) Amphitrite - 2025-02-09
astro.vanbuitenen.nl


 
-1 year
-1 month
-1 day
Now
+1 day
+1 month
+1 year

The interactive orbit chart above shows the body's path through the solar system and its position at the given date. Green and blue lines are shown perpendicular to the ecliptic plane: Green if the path is above the ecliptic plane, blue if it is below. (Left-click and drag to rotate the view; Right-click and drag to move the view; Use scroll wheel to zoom in our out.)

The orbital elements of Amphitrite are:

            e (Eccentricity)                : 0.0736232
            a (Semimajor axis)              : 2.5544444
            i (Inclination)                 : 6.07722
            Ω (Longitude of ascending node) : 356.26097
            ω (Argument of perihelion)      : 62.00528
            M (Mean anomaly)                : 48.39596
            Epoch                           : 2024 Oct 17

            L (Longitude of perihelion)     : 58.13221
            B (Latitude of perihelion)      : 5.36391
            P (Orbital period in years)     : 4.08            
        

The light curve chart below shows the estimated development of the minor planet's magnitude.


The all-sky chart below shows the path of the minor planet over the same period as the light curve. The current position is marked yellow.





The following chart shows the path of the minor planet in the next few days. The field of view is optimized for (~10x50) binoculars and finderscopes. A more printer-friendly version of the same chart can be found below.




Ephemerides:
Date       Time       RA (2000)    DEC (2000)    delta   radius  elong  phase   PA    magn
2025-02-09 00:00 UT   09 55 42.1   +18 27 15     1.541    2.523  172.9    2.8   240    9.2 
2025-02-09 14:27 UT   09 55 05.4   +18 29 10     1.541    2.523  173.3    2.6   235    9.2 
2025-02-10 00:00 UT   09 54 41.1   +18 30 24     1.541    2.524  173.6    2.5   231    9.2 
2025-02-11 00:00 UT   09 53 39.8   +18 33 30     1.541    2.524  174.2    2.3   221    9.2 
2025-02-12 00:00 UT   09 52 38.4   +18 36 30     1.541    2.525  174.6    2.1   208    9.2 
2025-02-13 00:00 UT   09 51 36.7   +18 39 27     1.541    2.526  174.6    2.1   195    9.2 
2025-02-14 00:00 UT   09 50 35.1   +18 42 18     1.542    2.527  174.4    2.2   182    9.2 
2025-02-15 00:00 UT   09 49 33.5   +18 45 05     1.543    2.528  173.9    2.4   170    9.2 
2025-02-16 00:00 UT   09 48 31.9   +18 47 46     1.545    2.528  173.3    2.6   161    9.2 
2025-02-17 00:00 UT   09 47 30.6   +18 50 21     1.546    2.529  172.5    2.9   153    9.2 
2025-02-18 00:00 UT   09 46 29.5   +18 52 50     1.548    2.530  171.5    3.3   147    9.3 
2025-02-19 00:00 UT   09 45 28.8   +18 55 13     1.550    2.531  170.5    3.7   142    9.3 
2025-02-20 00:00 UT   09 44 28.5   +18 57 29     1.553    2.532  169.5    4.1   138    9.3 
2025-02-21 00:00 UT   09 43 28.6   +18 59 39     1.556    2.532  168.4    4.5   135    9.4 
2025-02-22 00:00 UT   09 42 29.4   +19 01 42     1.559    2.533  167.3    4.9   132    9.4 
2025-02-23 00:00 UT   09 41 30.7   +19 03 38     1.562    2.534  166.2    5.4   130    9.4 
2025-02-24 00:00 UT   09 40 32.8   +19 05 26     1.566    2.535  165.0    5.8   128    9.4 
2025-02-25 00:00 UT   09 39 35.7   +19 07 07     1.570    2.535  163.9    6.2   126    9.5 
2025-02-26 00:00 UT   09 38 39.4   +19 08 41     1.574    2.536  162.7    6.7   125    9.5 
2025-02-27 00:00 UT   09 37 44.1   +19 10 06     1.578    2.537  161.6    7.1   123    9.5 
2025-02-28 00:00 UT   09 36 49.7   +19 11 24     1.583    2.538  160.4    7.5   122    9.5 
2025-03-01 00:00 UT   09 35 56.5   +19 12 33     1.588    2.539  159.2    8.0   121    9.6 
2025-03-02 00:00 UT   09 35 04.3   +19 13 34     1.593    2.539  158.1    8.4   120    9.6 
2025-03-03 00:00 UT   09 34 13.3   +19 14 27     1.598    2.540  156.9    8.8   119    9.6 
2025-03-04 00:00 UT   09 33 23.6   +19 15 12     1.604    2.541  155.7    9.2   119    9.6 
2025-03-05 00:00 UT   09 32 35.1   +19 15 48     1.610    2.542  154.6    9.6   118    9.7 
2025-03-06 00:00 UT   09 31 48.0   +19 16 16     1.616    2.543  153.4   10.1   117    9.7 
2025-03-07 00:00 UT   09 31 02.3   +19 16 36     1.623    2.543  152.3   10.5   117    9.7 
2025-03-08 00:00 UT   09 30 18.0   +19 16 47     1.629    2.544  151.1   10.9   116    9.7 
2025-03-09 00:00 UT   09 29 35.1   +19 16 49     1.636    2.545  150.0   11.3   116    9.8 
2025-03-10 00:00 UT   09 28 53.8   +19 16 44     1.644    2.546  148.9   11.6   115    9.8 
2025-03-11 00:00 UT   09 28 14.0   +19 16 30     1.651    2.547  147.7   12.0   115    9.8 


    Terminology:
            
    delta:  distance between minor planet and earth in AU
    radius: distance between minor planet and sun in AU
    magn:   magnitude (brightness) estimate    
    ra:     right ascension in hours (24h = 360deg)
    dec:    declination in degrees
    elong:  elongation in degrees (angle sun-earth-minor planet)    
    phase:  phase angle in degrees (angle sun-minor planet-earth)        
    AU:     Astronomical Unit (mean distance between earth and sun: 149597870.7 km
    

Orbital elements provided by the MPC (Minor Planet Center).
Calculations by a modified version of AAPlus, a C# implementation of the AA+ project by PJ Naughter from the algorithms presented in the book "Astronomical Algorithms" by Jean Meeus.
NGC2000 dso catalog and star labels from VizieR as provided by the Strasbourg astronomical Data Center.
Tycho2 catalog from the ESO archive.